| time (UTC) | temp C | wind direction | speed KPH | gust KPH | rain 1hr cm | rain 24hr cm | rain mn cm | humidity % | barometer mb |
| 20260504190036 | 13 | 143 | 0.0 | 4.8 | 0.00 | 0.00 | 0.00 | 84 | 1033.3 |
| 20260504184535 | 13 | 146 | 0.0 | 4.8 | 0.00 | 0.00 | 0.00 | 83 | 1033.2 |
| 20260504183033 | 13 | 146 | 0.0 | 3.2 | 0.00 | 0.00 | 0.00 | 83 | 1033.2 |
| 20260504181529 | 13 | 149 | 0.0 | 1.6 | 0.00 | 0.00 | 0.00 | 83 | 1033.3 |
| 20260504180029 | 13 | 151 | 1.6 | 4.8 | 0.00 | 0.00 | 0.00 | 83 | 1033.3 |
| 20260504174527 | 13 | 149 | 0.0 | 3.2 | 0.00 | 0.00 | 0.00 | 83 | 1033.2 |
| 20260504173027 | 13 | 139 | 0.0 | 3.2 | 0.00 | 0.00 | 0.00 | 83 | 1033.3 |
| 20260504171525 | 13 | 139 | 0.0 | 1.6 | 0.00 | 0.00 | 0.00 | 82 | 1033.3 |
| 20260504081549 | 12 | 144 | 0.0 | 4.8 | 0.00 | 0.00 | 0.00 | 87 | 1034.7 |
| 20260504044537 | 18 | 113 | 0.0 | 3.2 | 0.00 | 0.00 | 0.00 | 66 | 1033.3 |
| 20260504043040 | 18 | 96 | 0.0 | 8.0 | 0.00 | 0.00 | 0.00 | 65 | 1033.3 |
| 20260504041533 | 19 | 106 | 1.6 | 4.8 | 0.00 | 0.00 | 0.00 | 62 | 1033.3 |
| 20260504040032 | 19 | 123 | 1.6 | 8.0 | 0.00 | 0.00 | 0.00 | 62 | 1033.2 |
| 20260504034530 | 19 | 96 | 1.6 | 4.8 | 0.00 | 0.00 | 0.00 | 61 | 1033.3 |
| 20260504033029 | 20 | 121 | 1.6 | 4.8 | 0.00 | 0.00 | 0.00 | 61 | 1033.3 |
| 20260504031522 | 20 | 108 | 0.0 | 6.4 | 0.00 | 0.00 | 0.00 | 60 | 1033.4 |
| 20260504030026 | 20 | 77 | 1.6 | 8.0 | 0.00 | 0.00 | 0.00 | 60 | 1033.4 |
| 20260504024520 | 20 | 93 | 3.2 | 6.4 | 0.00 | 0.00 | 0.00 | 60 | 1033.4 |
| 20260504023018 | 19 | 94 | 1.6 | 4.8 | 0.00 | 0.00 | 0.00 | 63 | 1033.3 |
| 20260504021516 | 20 | 110 | 1.6 | 4.8 | 0.00 | 0.00 | 0.00 | 61 | 1033.4 |
| 20260504020014 | 20 | 101 | 1.6 | 6.4 | 0.00 | 0.00 | 0.00 | 62 | 1033.5 |
| 20260504014517 | 19 | 96 | 1.6 | 8.0 | 0.00 | 0.00 | 0.00 | 61 | 1033.6 |
| 20260504013028 | 19 | 159 | 1.6 | 6.4 | 0.00 | 0.00 | 0.00 | 64 | 1033.6 |
| 20260504011507 | 18 | 179 | 1.6 | 4.8 | 0.00 | 0.00 | 0.00 | 62 | 1033.7 |
| 20260504010007 | 18 | 232 | 1.6 | 6.4 | 0.00 | 0.00 | 0.00 | 61 | 1033.9 |
| 20260504004504 | 18 | 134 | 1.6 | 4.8 | 0.00 | 0.00 | 0.00 | 64 | 1034.1 |
| 20260504003005 | 19 | 292 | 0.0 | 6.4 | 0.00 | 0.00 | 0.00 | 61 | 1034.2 |
| 20260504001623 | 19 | 288 | 3.2 | 8.0 | 0.00 | 0.00 | 0.00 | 62 | 1034.3 |
| 20260504000110 | 18 | 122 | 0.0 | 4.8 | 0.00 | 0.00 | 0.00 | 64 | 1034.4 |
| 20260503234604 | 18 | 134 | 0.0 | 3.2 | 0.00 | 0.00 | 0.00 | 65 | 1034.6 |
| 20260503233100 | 18 | 149 | 0.0 | 3.2 | 0.00 | 0.00 | 0.00 | 68 | 1034.7 |
| 20260503231549 | 17 | 141 | 0.0 | 3.2 | 0.00 | 0.00 | 0.00 | 68 | 1034.9 |
| 20260503230106 | 17 | 145 | 1.6 | 4.8 | 0.00 | 0.00 | 0.00 | 69 | 1035.1 |
| 20260503224545 | 17 | 166 | 0.0 | 3.2 | 0.00 | 0.00 | 0.00 | 71 | 1035.1 |
| 20260503223042 | 16 | 146 | 0.0 | 1.6 | 0.00 | 0.00 | 0.00 | 74 | 1035.0 |
| 20260503221538 | 16 | 147 | 0.0 | 3.2 | 0.00 | 0.00 | 0.00 | 76 | 1035.1 |
| 20260503220043 | 15 | 143 | 0.0 | 4.8 | 0.00 | 0.00 | 0.00 | 77 | 1035.1 |
| 20260503214532 | 14 | 143 | 0.0 | 3.2 | 0.00 | 0.00 | 0.00 | 78 | 1035.2 |
| 20260503213029 | 13 | 136 | 3.2 | 8.0 | 0.00 | 0.00 | 0.00 | 78 | 1035.2 |
| 20260503211525 | 13 | 150 | 0.0 | 6.4 | 0.00 | 0.00 | 0.00 | 83 | 1035.3 |
| 20260503210023 | 12 | 152 | 1.6 | 6.4 | 0.00 | 0.00 | 0.00 | 82 | 1035.4 |
| 20260503204521 | 12 | 144 | 3.2 | 8.0 | 0.00 | 0.00 | 0.00 | 84 | 1035.3 |
| 20260503203041 | 12 | 142 | 0.0 | 4.8 | 0.00 | 0.00 | 0.00 | 85 | 1035.1 |
| 20260503201517 | 12 | 148 | 0.0 | 3.2 | 0.00 | 0.00 | 0.00 | 86 | 1035.1 |
| 20260503200017 | 11 | 152 | 0.0 | 3.2 | 0.00 | 0.00 | 0.00 | 86 | 1035.0 |
| 20260503194533 | 11 | 150 | 0.0 | 3.2 | 0.00 | 0.00 | 0.00 | 86 | 1034.9 |
| 20260503193017 | 11 | 146 | 1.6 | 6.4 | 0.00 | 0.00 | 0.00 | 86 | 1034.8 |
| 20260503191515 | 11 | 152 | 0.0 | 4.8 | 0.00 | 0.00 | 0.00 | 86 | 1034.6 |